Location: Betzi
(47.2343°N, 9.5260°E)
Time: 22:36:17
(UTC+00:00)

USA 306 - Pass Details

Date: 27 May 2022
Orbit: 545 x 556 km, 54.0° (Epoch: 20 June)

Event Time Altitude Azimuth Distance (km) Brightness Sun altitude
Exits shadow 01:38:03 - 271° (W) 1,959 5.3 -14.7°
Reaches altitude 10° 01:38:23 10° 273° (W) 1,836 5.2 -14.7°
Maximum altitude 01:42:21 41° 344° (NNW) 822 4.0 -14.3°
Drops below altitude 10° 01:46:20 10° 55° (NE) 1,850 6.7 -13.9°
Sets 01:48:41 0° 63° (ENE) 2,749 7.6 -13.7°
